Tracking 18980 objects as of 20-Feb-2018
HD Live streaming from Space Station
objects crossing your sky now

FENGYUN 1C DEB

Track FENGYUN 1C DEB now!
10-day predictions


NORAD ID: 30291
Int'l Code: 1999-025ZC
Perigee: 705.0 km
Apogee: 975.2 km
Inclination: 97.2 °
Period: 101.6 minutes
Semi major axis: 7211 km
RCS: 0.0203 m2 (small)
Launch date: May 10, 1999
Source: People's Republic of China (PRC)
Launch site: Taiyaun Space Center, China (TSC)

Note: This is SATELLITE DEBRIS
aabbcc
Your satellite tracking list
Your tracking list is empty




NASA's NSSDC Master Catalog

Two Line Element Set (TLE):
1 30291U 99025ZC  18051.21731751  .00001063  00000-0  45218-3 0  9995
2 30291  97.2430  34.3084 0187353   8.5830  56.4014 14.17742656570695
Source of the keplerian elements: AFSPC